ORBCOMM FM30 [+]

Last updated on Sat May 13 2023 00:03:01 GMT+0000 (Coordinated Universal Time)

1 25980U 99065A 23132.19852230 .00001306 00000+0 51298-3 0 9991 2 25980 45.0315 109.4263 0004052 146.3120 213.7985 14.34052419224249
UTC large
Height (km)
Speed (km/s)
/
Latitude / Longitude
Inclination (degrees)
Orbital Period (minutes)
Azimuth
Elevation
Range (km)
Doppler Factor

Next 0 passes for location: London (51.5072 / 0.1276)

Sorry there are no passes over London.